Temp_Advection
nan nan nan nan nan nan nan nan nan nan nan nan nan nan nan nan nan nan nan nan nan nan nan nan nan nan nan nan nan nan nan nan nan nan nan nan nan nan nan nan nan nan nan nan
nan -1 -2 -1 -0 -0 -0 -1 -1 -0 0 0 0 -0 -0 -0 -0 0 -0 -0 -0 -0 -0 0 -0 -0 -0 0 0 0 0 0 0 -0 -0 -0 -0 -0 -0 0 0 0 0 nan
nan -2 -1 -0 0 -0 -0 -1 -1 -0 0 1 0 0 -0 -0 0 -0 0 -0 -0 -0 -1 -0 -0 -0 -0 0 1 0 1 0 -0 0 -0 -0 -0 -0 -0 -0 0 -0 -0 nan
nan -1 0 0 -0 -0 -0 -1 0 0 0 0 0 0 -1 -0 0 -0 -0 -0 -0 -0 -0 -1 -0 -0 -0 0 0 0 0 0 -0 0 -0 -0 -0 -0 -0 -0 -0 0 -0 nan
nan -0 -0 -0 -1 -0 -1 0 1 0 0 -0 0 -1 -1 -0 -0 -1 -0 -0 -0 -0 -0 -0 -1 -1 -0 -0 -0 0 0 0 -0 -1 -1 0 -0 -0 -0 -0 -0 0 0 nan
nan -1 -0 -1 -0 -0 0 1 0 1 1 0 -1 -1 -1 -1 -1 -1 -0 -0 -0 -0 -0 0 -0 -0 -0 -0 0 0 0 -0 -1 -1 -0 -0 -0 -0 0 0 0 -0 -0 nan
nan -0 0 0 0 0 1 0 0 1 0 -1 -1 0 -1 -1 -0 -0 0 -0 -0 -0 0 -0 -0 -0 -0 0 0 0 0 0 -0 -0 0 -1 -1 0 0 0 -0 -0 -0 nan
nan -0 -2 -0 -0 0 0 -0 -0 -1 -2 -2 -1 -1 -2 -1 -0 0 0 0 -0 -0 -0 -0 -0 -0 -0 0 0 0 0 -0 -1 -1 -2 -1 -0 -0 0 -0 -0 0 -0 nan
nan -2 -1 -0 -0 0 -1 -1 -1 -1 -0 -0 -0 -1 -1 0 1 0 0 0 -0 -1 -0 0 -0 -0 -0 -0 -0 0 -0 -1 -2 -2 -2 -2 -1 -0 -0 -0 0 0 -0 nan
nan -1 -0 -0 1 1 -0 0 0 0 0 -1 -0 -0 -0 0 -0 0 0 0 0 -0 -0 -0 0 -0 -0 -0 -0 -0 0 -1 -0 -1 -2 -1 -0 0 -0 -0 0 -0 -0 nan
nan -1 0 0 0 -0 -0 0 -1 -0 0 0 -0 -1 -1 -1 -0 -0 0 0 0 0 -0 0 -0 -0 -0 -0 -0 -0 -0 -0 0 -1 -1 -0 0 -0 -0 -0 -1 -1 -0 nan
nan 1 -0 0 -1 -1 0 0 -0 0 -1 -1 -0 0 0 0 0 0 0 0 0 0 0 -0 -1 -0 -1 -1 -0 -1 -1 -1 -1 -0 -0 1 0 -0 -0 -0 -0 -1 -1 nan
nan 1 -0 -1 0 1 1 -1 -0 -1 -0 0 -0 -0 0 0 0 0 0 0 0 0 1 -0 -1 -1 -0 -0 -0 -0 -1 -1 -0 -0 1 1 -1 -1 -0 1 -0 -1 -1 nan
nan -2 -1 -1 -0 -0 -0 -0 0 0 0 -0 -1 -0 0 0 0 0 0 0 1 1 0 0 0 0 0 0 0 0 -0 -0 -0 -0 0 -0 -1 -0 4 1 -1 -0 -0 nan
nan -1 -2 -2 -1 1 1 -0 0 0 0 -1 -0 -0 -0 -0 0 0 0 0 0 0 0 0 0 1 1 1 1 1 1 0 0 0 0 0 1 2 2 0 -0 -0 -1 nan
nan -0 -2 -2 -0 0 -1 -0 0 -0 -0 -1 -0 -0 -0 -0 -0 0 0 0 0 0 -0 0 0 0 0 1 1 1 1 1 0 1 1 1 1 1 1 0 1 -1 -3 nan
nan -1 -0 -0 -0 1 -1 -2 -1 0 0 0 0 -1 0 0 0 0 0 0 0 -0 -0 0 -0 0 -0 -0 -0 0 0 1 1 1 1 1 1 1 1 -0 -1 -1 1 nan
nan -1 -1 -0 0 -1 -2 -0 0 0 -0 0 0 0 0 0 0 0 0 -0 -0 -0 -0 -0 -0 -0 -0 -0 0 0 0 1 0 0 1 1 2 1 0 -2 -0 2 -0 nan
nan -0 -0 -1 -1 -0 -1 0 1 1 0 0 0 0 0 0 0 0 0 -0 -0 -0 -0 -0 -0 0 0 0 0 0 0 0 0 0 2 2 1 1 0 -1 2 1 0 nan
nan 0 -1 -1 -1 -0 0 0 0 0 0 0 0 0 0 0 0 1 -1 -1 -1 -1 -0 -0 0 1 1 1 1 1 1 1 0 1 2 2 1 1 1 0 1 1 1 nan
nan 0 -0 -0 -1 -1 0 -0 0 1 -0 -2 1 0 0 0 -0 -1 -1 -1 -1 -1 -1 -1 -0 -0 0 0 0 1 1 1 2 2 1 1 1 1 0 -0 1 2 1 nan
nan -0 -0 -0 -0 -2 -0 0 0 -1 -1 -1 -2 -1 -1 -1 -1 -1 -1 -1 -1 -1 -1 -1 -0 0 0 -0 1 1 1 1 2 1 1 1 1 0 0 1 1 1 0 nan
nan -1 -0 -0 -1 -0 -0 -1 -0 -0 -0 -0 -1 -1 -0 -0 -0 -0 -1 -1 -1 -1 -1 -0 -0 0 0 0 0 0 1 1 1 1 1 1 1 0 0 1 0 -0 -0 nan
nan -1 -0 -0 -1 -0 -0 -0 -0 -0 -0 -0 -1 -1 -1 -1 -0 -1 -1 -1 -0 -0 -0 -0 -0 0 0 -0 0 0 1 1 1 1 1 1 0 0 0 -0 -0 -1 -1 nan
nan -0 0 -0 -0 0 0 -0 -0 -0 -0 -0 -0 -1 -1 -1 0 -1 -1 -1 -1 -0 -0 -0 0 0 0 0 0 0 0 0 0 0 0 -0 -0 -0 -0 -1 -1 -0 -0 nan
nan nan nan nan nan nan nan nan nan nan nan nan nan nan nan nan nan nan nan nan nan nan nan nan nan nan nan nan nan nan nan nan nan nan nan nan nan nan nan nan nan nan nan nan
Wind_Speed
30 20 27 29 27 22 22 21 24 18 23 22 18 18 15 20 20 21 25 27 28 29 29 32 32 30 30 28 28 28 28 28 26 24 22 21 20 17 16 15 15 16 14 12
19 28 26 24 26 27 26 26 24 22 13 11 15 20 17 14 16 19 24 26 28 27 29 32 33 33 32 31 30 30 31 30 30 26 24 21 19 17 16 15 17 16 15 13
28 19 27 26 25 27 28 28 24 20 18 19 14 19 17 16 19 20 21 25 27 31 33 34 35 35 34 34 33 33 34 34 32 26 24 23 20 19 18 17 17 17 17 14
30 26 26 27 27 26 27 26 23 18 19 17 21 16 20 17 18 19 23 27 28 30 32 33 35 36 37 36 34 34 35 35 33 33 25 26 24 22 19 18 17 16 17 16
32 28 23 27 26 26 24 20 24 23 20 19 22 19 18 24 25 21 20 27 29 29 32 34 37 37 36 35 34 34 36 35 32 33 30 27 26 21 19 18 19 21 18 17
30 25 24 22 24 22 21 16 19 22 19 20 25 21 19 17 20 24 26 28 29 29 32 34 34 32 33 34 34 33 35 36 36 34 36 32 29 25 20 20 19 18 19 16
28 32 24 21 22 24 18 19 13 16 18 17 25 24 20 20 19 19 20 29 27 25 29 34 35 35 35 37 37 37 39 40 39 38 35 39 34 31 26 22 21 19 19 20
22 25 34 22 27 25 27 25 16 21 18 17 24 27 24 25 16 22 26 26 29 27 28 34 37 37 38 40 42 40 40 41 40 40 39 38 41 30 31 28 23 23 20 20
25 31 30 25 24 27 23 26 28 22 22 14 20 28 24 21 26 20 17 29 28 30 28 33 37 39 39 40 44 45 44 44 44 44 44 43 41 42 34 32 31 25 23 20
28 20 28 32 24 28 25 25 22 16 20 19 14 15 18 20 16 26 25 20 31 27 29 32 35 39 40 40 44 46 46 47 43 44 44 45 45 44 43 37 36 31 28 26
33 22 16 25 28 27 26 22 25 20 18 13 11 11 17 19 19 18 20 33 28 27 29 31 34 37 38 38 38 42 45 44 44 44 45 44 46 47 45 46 43 39 34 33
35 13 21 31 28 27 26 29 27 17 24 17 12 1 9 9 10 19 22 24 32 30 29 30 31 30 34 38 38 40 41 43 48 46 47 48 46 45 47 47 48 46 42 39
9 17 16 22 25 28 31 30 24 26 18 21 15 7 9 5 2 15 18 20 23 25 25 27 31 31 31 35 38 39 41 42 41 43 43 46 50 51 51 49 46 46 44 42
10 17 23 19 25 24 29 29 30 24 19 17 19 15 13 8 8 7 8 9 15 14 8 15 20 25 29 29 34 38 38 38 38 39 41 44 49 53 52 50 50 47 46 44
7 15 20 26 18 20 28 29 30 30 24 24 15 19 15 13 11 13 14 11 6 7 10 13 15 18 19 23 27 34 36 36 37 41 43 48 46 45 43 45 49 47 45 44
10 12 19 23 24 5 14 26 32 30 27 24 23 14 18 18 13 11 9 7 6 7 8 11 13 13 17 24 25 27 34 35 36 39 46 44 45 44 45 45 46 47 47 47
11 9 12 17 22 11 16 20 20 24 27 22 22 19 9 6 4 4 7 10 11 12 12 14 16 15 17 19 19 25 29 32 37 42 40 44 43 45 44 42 43 49 51 48
12 12 9 12 18 20 14 19 14 14 14 16 12 10 9 6 10 14 14 15 14 14 15 14 16 18 18 20 19 22 22 29 34 38 43 42 45 43 45 46 48 46 46 50
13 11 7 10 16 7 17 14 21 22 20 14 14 13 10 12 12 18 21 23 23 21 20 18 18 19 19 19 15 17 19 24 28 33 41 44 42 43 45 48 47 45 45 45
15 12 11 8 13 18 4 10 2 3 12 20 18 15 11 10 10 7 10 11 13 18 15 15 18 18 18 20 22 23 24 25 30 32 34 39 41 44 46 46 44 42 41 43
12 13 14 13 8 10 5 12 13 12 6 17 5 4 7 6 9 20 19 18 16 17 17 14 13 13 16 15 17 21 25 27 32 24 26 35 38 42 42 41 39 39 38 35
12 15 13 14 16 17 5 7 5 8 11 16 13 11 11 11 14 18 20 20 19 19 18 17 17 15 13 13 14 18 23 26 23 26 26 31 33 32 31 37 35 35 34 35
9 9 10 13 15 4 11 14 5 4 9 9 12 12 11 14 15 17 19 18 16 15 13 12 13 13 8 8 11 15 18 18 20 22 24 26 27 28 30 29 31 28 30 30
12 16 12 14 17 14 18 14 12 13 15 14 16 18 16 17 17 19 19 17 12 8 7 7 7 7 4 2 3 6 7 9 14 16 20 21 21 22 22 24 22 24 25 26
13 13 15 19 19 23 25 22 20 24 20 22 20 18 20 20 20 19 17 15 10 8 6 3 2 4 3 3 3 2 3 5 9 11 13 14 15 18 18 20 21 21 23 23
20 18 14 14 17 17 22 26 27 26 23 22 21 24 23 23 23 21 19 15 10 6 3 5 7 5 6 6 6 5 2 5 6 8 9 10 11 12 13 14 15 21 23 19
Wind_Direction
200 202 213 211 218 225 239 224 227 227 213 194 218 223 208 174 188 198 180 193 191 192 192 193 193 194 194 195 195 197 199 201 201 202 204 204 206 208 207 206 209 214 208 219
186 220 214 220 216 225 230 241 230 226 215 226 216 224 226 197 187 210 187 193 194 190 187 193 194 195 197 197 198 199 202 204 202 204 204 205 206 210 210 211 216 211 214 213
209 211 216 212 219 214 226 229 235 233 216 221 237 237 228 226 185 199 205 194 196 194 188 190 194 197 199 200 200 202 203 204 205 198 204 203 206 206 214 213 215 220 211 221
220 225 196 216 217 216 220 222 238 238 240 219 206 234 219 223 198 188 204 196 199 198 196 191 194 197 199 202 203 203 206 204 207 196 205 205 203 207 211 213 213 217 219 216
211 218 204 209 213 216 228 218 218 234 241 246 241 219 231 201 212 196 201 200 199 199 197 196 198 199 199 200 202 203 207 207 201 206 194 211 207 211 211 210 212 215 228 218
228 209 223 212 216 216 220 227 227 217 232 237 234 238 232 226 208 201 193 204 199 197 198 202 199 198 198 199 202 203 206 211 206 211 204 204 213 201 208 210 212 215 213 226
213 228 212 226 210 207 206 208 206 217 218 226 219 231 233 229 220 208 204 202 203 197 200 197 197 196 197 196 199 202 206 213 212 210 214 207 208 207 205 212 212 214 217 218
210 215 222 200 211 200 201 208 213 209 217 225 228 224 228 235 247 232 202 210 195 193 197 198 199 199 198 196 196 200 204 210 212 212 215 216 216 213 212 212 210 212 215 221
203 222 196 209 208 211 195 215 217 236 213 232 216 219 238 229 218 224 221 201 206 185 196 198 200 200 199 199 199 200 203 215 217 215 218 222 220 219 214 212 217 214 218 218
242 211 217 199 206 214 227 205 216 235 252 224 233 236 207 206 216 207 208 211 211 202 191 197 200 201 202 203 203 203 205 212 219 215 220 222 223 224 219 216 216 220 216 220
237 246 234 204 203 200 208 214 213 227 232 239 240 226 221 192 207 214 208 208 208 202 188 195 198 202 204 205 205 208 208 208 213 218 220 222 225 226 226 224 224 221 222 217
218 235 237 202 199 213 212 213 201 221 216 238 272 170 32 158 196 190 211 208 211 209 192 196 198 201 202 206 207 209 210 211 217 218 220 224 226 229 231 230 228 233 231 231
198 227 221 228 193 201 219 205 216 213 234 213 227 195 114 113 170 182 196 200 202 202 193 197 194 196 203 206 208 211 212 215 216 216 218 218 226 229 231 234 234 232 235 235
307 244 226 217 198 187 209 209 213 216 217 224 208 225 119 119 152 148 170 167 184 199 176 198 202 200 201 203 206 210 214 216 216 218 218 220 223 229 230 229 235 236 236 236
252 237 238 250 246 207 198 214 213 214 218 222 205 210 163 146 136 139 134 119 112 151 193 202 213 224 224 205 203 208 214 214 215 216 219 223 224 225 223 225 229 235 236 237
301 257 249 248 249 215 264 209 216 212 220 223 233 220 190 148 158 179 192 204 211 236 228 199 196 214 214 210 210 212 213 213 213 217 219 220 221 223 223 223 226 227 235 235
307 271 233 233 236 214 239 238 227 220 212 219 219 230 243 183 171 227 245 243 244 252 245 234 237 239 212 209 215 218 215 216 217 220 220 219 220 222 221 221 223 229 234 232
276 298 279 226 233 222 229 207 235 242 239 227 238 247 242 263 263 257 258 266 269 270 269 259 242 231 221 224 227 217 215 220 220 221 222 220 218 219 221 226 231 226 228 234
246 266 264 249 220 198 221 221 200 213 226 226 231 237 248 251 251 255 261 264 265 269 266 259 243 236 232 239 236 228 214 219 230 229 225 220 218 217 221 229 232 227 228 230
226 220 263 255 252 204 142 109 102 209 228 217 223 230 225 215 218 232 359 336 307 270 281 275 249 247 248 242 236 231 227 223 231 239 228 224 216 219 221 227 229 230 229 233
202 219 222 237 256 249 75 54 149 185 61 18 128 208 246 260 305 327 323 318 308 296 289 294 288 272 260 254 240 230 224 224 233 227 223 221 219 219 222 227 231 232 230 228
208 202 218 227 232 237 26 133 197 49 15 360 11 12 352 335 311 305 311 312 309 302 290 274 276 278 274 251 237 237 228 222 224 220 218 218 220 217 223 224 227 227 228 233
241 259 229 220 223 261 297 318 358 358 318 326 333 321 307 301 299 311 315 310 301 296 292 278 270 272 259 250 245 239 237 222 212 214 218 215 219 223 213 228 226 226 232 231
283 290 271 266 264 273 281 293 293 291 284 302 296 292 299 305 310 313 316 313 309 305 307 299 272 251 246 324 228 220 212 207 206 211 213 216 217 219 220 221 227 226 227 234
287 301 257 260 261 273 270 274 274 271 284 286 289 300 303 306 310 313 313 326 310 306 305 290 213 169 143 129 114 121 186 181 201 202 204 207 209 217 218 218 220 228 233 234
269 268 259 248 255 251 254 254 251 261 272 284 290 295 300 305 307 309 298 301 297 303 289 183 140 146 127 127 141 101 111 144 158 184 195 204 205 215 216 222 234 230 228 234
Height
1456 1458 1449 1448 1448 1448 1443 1441 1444 1433 1430 1440 1446 1448 1443 1448 1455 1460 1469 1479 1486 1492 1500 1507 1514 1520 1526 1531 1535 1540 1545 1548 1553 1557 1560 1563 1566 1569 1571 1573 1575 1576 1577 1578
1451 1443 1440 1445 1445 1446 1446 1442 1438 1432 1430 1435 1440 1445 1438 1440 1447 1456 1461 1471 1478 1487 1494 1502 1508 1514 1520 1525 1530 1534 1539 1543 1547 1552 1556 1560 1563 1567 1569 1571 1572 1574 1575 1577
1430 1428 1437 1437 1439 1443 1442 1441 1436 1436 1431 1432 1439 1445 1441 1436 1441 1451 1455 1464 1471 1477 1483 1493 1500 1506 1513 1519 1524 1528 1532 1538 1542 1548 1552 1556 1560 1563 1566 1568 1569 1570 1573 1576
1426 1419 1425 1430 1432 1433 1439 1433 1434 1436 1438 1448 1435 1461 1440 1433 1436 1444 1450 1455 1463 1470 1478 1486 1493 1499 1504 1511 1519 1524 1527 1531 1536 1541 1547 1550 1553 1557 1561 1564 1566 1568 1569 1572
1412 1413 1417 1424 1423 1425 1430 1426 1436 1439 1441 1441 1434 1445 1424 1423 1432 1432 1440 1447 1453 1461 1469 1477 1483 1490 1497 1506 1512 1518 1521 1526 1531 1534 1540 1545 1550 1554 1557 1560 1562 1564 1566 1568
1405 1406 1406 1410 1416 1420 1425 1430 1432 1436 1441 1450 1436 1435 1427 1414 1415 1419 1427 1437 1444 1451 1460 1470 1478 1487 1493 1500 1508 1513 1516 1520 1525 1528 1533 1539 1543 1549 1553 1555 1558 1561 1563 1564
1402 1397 1399 1403 1411 1414 1423 1432 1449 1453 1443 1441 1423 1431 1420 1405 1406 1411 1419 1426 1435 1443 1452 1462 1471 1478 1485 1491 1498 1505 1509 1512 1517 1523 1526 1531 1537 1542 1547 1551 1554 1557 1559 1560
1400 1409 1391 1392 1397 1406 1416 1418 1426 1448 1440 1430 1415 1423 1410 1401 1403 1406 1412 1419 1428 1436 1445 1453 1462 1470 1477 1483 1489 1497 1501 1506 1511 1516 1520 1525 1530 1537 1540 1545 1548 1551 1553 1555
1381 1386 1373 1383 1390 1394 1406 1409 1399 1402 1396 1405 1399 1398 1392 1390 1397 1404 1405 1413 1418 1425 1436 1445 1454 1462 1470 1476 1481 1486 1492 1495 1501 1506 1512 1517 1522 1527 1532 1537 1541 1545 1548 1551
1365 1380 1366 1376 1385 1388 1385 1397 1416 1404 1423 1420 1397 1393 1397 1391 1395 1393 1402 1408 1413 1418 1428 1437 1446 1454 1461 1467 1472 1479 1484 1487 1491 1499 1504 1509 1514 1519 1526 1531 1534 1537 1542 1545
1367 1363 1362 1363 1372 1381 1389 1390 1397 1395 1394 1407 1414 1393 1365 1374 1382 1391 1394 1402 1407 1412 1420 1430 1439 1446 1454 1462 1468 1472 1478 1483 1486 1490 1495 1501 1505 1510 1516 1521 1525 1530 1534 1538
1359 1364 1373 1354 1361 1368 1370 1382 1385 1399 1406 1392 1388 1387 1364 1364 1374 1385 1394 1397 1403 1408 1415 1425 1432 1440 1447 1453 1459 1464 1470 1475 1476 1481 1487 1491 1497 1502 1506 1510 1516 1521 1526 1530
1362 1368 1375 1360 1359 1362 1367 1370 1371 1381 1380 1395 1404 1393 1373 1377 1379 1383 1390 1394 1399 1404 1411 1418 1424 1432 1439 1444 1450 1455 1461 1465 1472 1477 1480 1485 1487 1492 1494 1499 1506 1512 1517 1522
1392 1368 1363 1351 1342 1353 1371 1364 1368 1371 1385 1385 1385 1381 1381 1384 1385 1389 1390 1394 1399 1404 1410 1414 1418 1424 1430 1437 1442 1448 1454 1460 1466 1471 1475 1476 1477 1479 1485 1492 1497 1502 1507 1512
1387 1381 1365 1350 1339 1341 1353 1362 1361 1369 1372 1382 1373 1381 1376 1383 1389 1392 1397 1402 1406 1409 1413 1418 1422 1425 1428 1432 1437 1442 1448 1453 1457 1461 1465 1466 1471 1477 1482 1485 1488 1493 1498 1503
1386 1388 1375 1362 1347 1358 1361 1347 1356 1359 1367 1371 1371 1371 1368 1379 1388 1394 1400 1405 1410 1414 1415 1417 1420 1424 1425 1428 1432 1437 1440 1445 1450 1453 1453 1459 1463 1467 1470 1477 1481 1486 1488 1491
1405 1388 1378 1375 1364 1367 1379 1358 1351 1353 1359 1364 1378 1373 1367 1377 1385 1394 1401 1406 1409 1411 1414 1415 1417 1418 1421 1424 1428 1431 1433 1437 1441 1443 1447 1451 1455 1457 1462 1468 1472 1472 1476 1483
1415 1404 1389 1382 1375 1390 1358 1354 1356 1360 1357 1359 1366 1371 1374 1382 1390 1396 1400 1403 1404 1406 1408 1409 1411 1413 1416 1418 1420 1423 1427 1429 1432 1436 1438 1442 1446 1449 1452 1456 1458 1463 1467 1469
1415 1413 1398 1389 1372 1363 1359 1355 1361 1369 1373 1370 1375 1380 1384 1389 1395 1398 1399 1400 1401 1402 1403 1405 1406 1407 1410 1412 1414 1417 1420 1421 1423 1424 1427 1432 1437 1441 1443 1445 1448 1454 1458 1460
1410 1413 1412 1392 1383 1376 1357 1356 1364 1365 1381 1371 1377 1381 1381 1386 1392 1392 1395 1395 1396 1397 1398 1399 1401 1403 1405 1407 1409 1411 1413 1415 1414 1415 1418 1422 1428 1432 1433 1436 1441 1446 1450 1453
1407 1409 1412 1405 1397 1375 1361 1366 1370 1391 1396 1378 1375 1384 1387 1389 1392 1393 1397 1397 1397 1397 1397 1397 1398 1399 1400 1401 1402 1403 1405 1406 1406 1411 1413 1415 1418 1422 1427 1431 1435 1438 1442 1448
1400 1404 1404 1405 1404 1401 1372 1376 1386 1396 1397 1397 1395 1397 1399 1399 1401 1401 1397 1396 1393 1392 1392 1393 1394 1394 1395 1395 1397 1398 1398 1400 1403 1405 1407 1410 1413 1417 1421 1424 1428 1432 1436 1439
1408 1400 1395 1396 1394 1389 1385 1391 1392 1399 1403 1404 1404 1403 1405 1403 1402 1401 1398 1395 1392 1390 1389 1389 1390 1390 1391 1391 1392 1393 1394 1396 1398 1399 1402 1406 1408 1411 1416 1419 1422 1427 1430 1433
1406 1403 1400 1401 1396 1396 1396 1396 1399 1403 1405 1406 1408 1406 1404 1402 1400 1398 1395 1391 1389 1388 1388 1387 1387 1387 1387 1388 1389 1390 1390 1391 1393 1395 1399 1402 1405 1408 1411 1415 1419 1421 1424 1426
1407 1405 1402 1399 1400 1401 1401 1402 1404 1403 1402 1405 1404 1404 1402 1399 1397 1396 1393 1390 1389 1389 1389 1388 1387 1387 1387 1386 1386 1386 1387 1389 1391 1394 1397 1399 1401 1403 1407 1410 1414 1416 1418 1421
1410 1405 1404 1398 1397 1397 1399 1402 1403 1404 1403 1401 1400 1399 1398 1394 1392 1393 1392 1390 1391 1388 1387 1386 1387 1387 1387 1386 1386 1386 1386 1387 1391 1393 1396 1398 1400 1402 1404 1407 1408 1410 1412 1414